SUPERBIRD 8 (43271 NORAD) Tracking and Keplerian Element Data

This shows tracking and keplerian element data for the satellite.

Feedback or suggestion? Click here.




ElementValue
Catalog43271
NameSUPERBIRD 8
Epoch Orbit232
Epoch Day323.38784068
Epoch Year2018
RAAN3.5836
Inclination0.0029
Eccentricity0.000115
Argument of Perigee234.241
Mean Anonmoly122.1998
Mean Motion1.00272298
Decay Rate-8.2E-07
L11 43271U 18033A 18323.38784068 -.00000082 00000-0 00000+0 0 9993
L22 43271 0.0029 3.5836 0001150 234.2410 122.1998 1.00272298 2328

Live tracking and technical data element details for SUPERBIRD 8 (NORAD 43271). SUPERBIRD 8 can be tracked NOW for your location showing map with azimuth and elevation plus other details from your city location.

Track the satellite on the map from your city or location and see movement details for azimuth, elevation, latitude, longitude, range, height, and movement on the map or in text.







IsCatalogInMostPopularTable: catalog: 43271, numindb: 154
Update: records affected: 1



GetName: 43271 SUPERBIRD 8

Hit Count: updated at: Tue, 20 Nov 2018 07:44:39 GMT